FW5872 Weather Reports


Display with metric or nautical units.
time (UTC)temp
F
wind
direction
speed
MPH
gust
MPH
rain 1hr
in
rain 24hr
in
rain mn
in
humidity
%
barometer
mb
20260510044531 56 0 0.0 0.0 0.00 0.00 0.00 89 1010.9
20260510043034 57 0 0.0 0.0 0.00 0.00 0.00 88 1010.9
20260510041530 58 0 0.0 0.0 0.00 0.00 0.00 87 1010.8
20260510040030 58 0 0.0 0.0 0.00 0.00 0.00 86 1010.7
20260510034528 59 0 0.0 0.0 0.00 0.00 0.00 86 1010.6
20260510033033 59 0 0.0 0.0 0.00 0.00 0.00 85 1010.6
20260510031528 59 0 0.0 0.0 0.00 0.00 0.00 84 1010.7
20260510030030 60 0 0.0 0.0 0.00 0.00 0.00 84 1010.7
20260510024528 60 0 0.0 0.0 0.00 0.00 0.00 83 1010.6
20260510023031 60 0 0.0 0.0 0.00 0.00 0.00 83 1010.5
20260510021532 61 0 0.0 0.0 0.00 0.00 0.00 82 1010.4
20260510020028 61 0 0.0 0.0 0.00 0.00 0.00 81 1010.3
20260510014531 62 0 0.0 0.0 0.00 0.00 0.00 79 1010.2
20260510013030 62 0 0.0 0.0 0.00 0.00 0.00 79 1010.0
20260510011535 62 0 0.0 0.0 0.00 0.00 0.00 78 1009.6
20260510010038 63 0 0.0 0.0 0.00 0.00 0.00 76 1009.5
20260510004528 63 0 0.0 0.0 0.00 0.00 0.00 75 1009.3
20260510003029 64 0 0.0 0.0 0.00 0.00 0.00 73 1009.2
20260510001530 65 0 0.0 0.0 0.00 0.00 0.00 71 1009.0
20260510000032 67 0 0.0 0.0 0.00 0.00 0.00 70 1009.0
20260509234538 68 0 0.0 0.0 0.00 0.00 0.00 66 1008.9
20260509233031 68 0 0.0 0.0 0.00 0.00 0.00 65 1008.8
20260509231533 69 0 0.0 0.0 0.00 0.00 0.00 64 1008.7
20260509230030 69 0 0.0 0.0 0.00 0.00 0.00 62 1008.7
20260509224530 70 0 0.0 0.0 0.00 0.00 0.00 62 1008.8
20260509223030 71 0 0.0 0.0 0.00 0.00 0.00 57 1008.7
20260509221544 72 0 0.0 1.0 0.00 0.00 0.00 56 1008.7
20260509220030 72 0 0.0 2.0 0.00 0.00 0.00 56 1008.6
20260509214530 72 0 0.0 4.0 0.00 0.00 0.00 56 1008.7
20260509213030 72 0 0.0 3.0 0.00 0.00 0.00 55 1008.7
20260509211530 73 276 1.0 4.0 0.00 0.00 0.00 55 1008.7
20260509210030 72 0 0.0 2.0 0.00 0.00 0.00 57 1008.7
20260509204528 72 0 2.0 4.0 0.00 0.00 0.00 54 1008.7
20260509203033 72 252 2.0 4.0 0.00 0.00 0.00 55 1008.7
20260509201530 72 278 1.0 5.0 0.00 0.00 0.00 56 1008.6
20260509200032 72 8 0.0 6.0 0.00 0.00 0.00 58 1008.8
20260509194527 72 0 0.0 5.0 0.00 0.00 0.00 57 1009.1
20260509193031 72 37 0.0 2.0 0.00 0.00 0.00 59 1009.3
20260509191529 70 0 0.0 3.0 0.00 0.00 0.00 60 1009.5
20260509190041 71 243 1.0 7.0 0.00 0.00 0.00 59 1009.7
20260509184534 71 110 0.0 3.0 0.00 0.00 0.00 59 1009.7
20260509183037 69 179 0.0 1.0 0.00 0.00 0.00 63 1010.0
20260509181528 67 0 0.0 2.0 0.00 0.00 0.00 64 1010.0
20260509180027 68 0 0.0 1.0 0.00 0.00 0.00 63 1010.7
20260509174528 69 0 0.0 1.0 0.00 0.00 0.00 63 1010.9
20260509173036 69 0 0.0 3.0 0.00 0.00 0.00 65 1010.9
20260509171534 68 120 0.0 2.0 0.00 0.00 0.00 62 1011.0
20260509170036 66 0 0.0 1.0 0.00 0.00 0.00 65 1011.2
20260509164536 66 0 0.0 1.0 0.00 0.00 0.00 63 1011.2
20260509163029 67 0 0.0 1.0 0.00 0.00 0.00 63 1011.1
20260509161530 67 269 1.0 4.0 0.00 0.00 0.00 60 1011.1
20260509160028 68 287 0.0 3.0 0.00 0.00 0.00 62 1011.1
20260509154529 67 285 2.0 4.0 0.00 0.00 0.00 59 1011.2
20260509153033 66 286 2.0 5.0 0.00 0.00 0.00 60 1011.4
20260509151535 66 276 1.0 6.0 0.00 0.00 0.00 60 1011.5
20260509150031 65 50 0.0 3.0 0.00 0.00 0.00 60 1011.5
20260509144530 64 48 1.0 3.0 0.00 0.00 0.00 62 1011.9
20260509143030 61 0 0.0 4.0 0.00 0.00 0.00 65 1012.0
20260509141536 61 0 0.0 2.0 0.00 0.00 0.00 66 1012.1
20260509140034 60 263 1.0 3.0 0.00 0.00 0.00 65 1011.8
20260509134538 60 0 0.0 3.0 0.00 0.00 0.00 64 1012.1
20260509133034 60 264 0.0 2.0 0.00 0.00 0.00 64 1012.0
20260509131550 60 0 0.0 3.0 0.00 0.00 0.00 64 1012.0
20260509130043 60 264 1.0 5.0 0.00 0.00 0.00 63 1012.1
20260509124533 60 278 1.0 3.0 0.00 0.00 0.00 63 1012.1
20260509123033 59 0 0.0 3.0 0.00 0.00 0.00 65 1012.1
20260509121530 59 0 0.0 1.0 0.00 0.00 0.00 65 1011.8
20260509120032 58 34 0.0 2.0 0.00 0.00 0.00 63 1011.8
20260509114527 58 0 0.0 1.0 0.00 0.00 0.00 62 1011.7
20260509113028 58 0 0.0 3.0 0.00 0.00 0.00 62 1011.5
20260509111552 58 0 0.0 2.0 0.00 0.00 0.00 62 1011.5
20260509110029 58 0 0.0 1.0 0.00 0.00 0.00 61 1011.3
20260509104530 57 286 0.0 1.0 0.00 0.00 0.00 61 1011.4
20260509103030 57 0 0.0 0.0 0.00 0.00 0.00 61 1011.4
20260509101528 57 0 0.0 0.0 0.00 0.00 0.00 60 1011.2
20260509100035 57 0 0.0 0.0 0.00 0.00 0.00 60 1011.2
20260509094530 57 0 0.0 0.0 0.00 0.00 0.00 60 1011.1
20260509093030 58 278 0.0 3.0 0.00 0.00 0.00 60 1011.3
20260509091528 58 0 0.0 2.0 0.00 0.00 0.00 59 1011.3
20260509090029 58 258 0.0 3.0 0.00 0.00 0.00 58 1011.5
20260509084535 58 0 0.0 3.0 0.00 0.00 0.00 58 1011.5
20260509083031 58 0 0.0 2.0 0.00 0.00 0.00 58 1011.7
20260509081539 58 0 0.0 1.0 0.00 0.00 0.00 59 1011.9
20260509080027 58 105 0.0 2.0 0.00 0.00 0.00 57 1012.2
20260509074531 58 0 0.0 1.0 0.00 0.00 0.00 58 1012.0
20260509073028 58 0 0.0 1.0 0.00 0.00 0.00 58 1012.1
20260509071528 58 0 0.0 2.0 0.00 0.00 0.00 59 1012.0
20260509070028 58 0 0.0 3.0 0.00 0.00 0.00 58 1012.1
20260509064528 58 0 0.0 1.0 0.00 0.00 0.00 58 1012.1
20260509063027 57 0 0.0 1.0 0.00 0.00 0.00 58 1012.2
20260509061530 57 0 0.0 1.0 0.00 0.00 0.00 58 1012.5
20260509060028 57 0 0.0 3.0 0.00 0.00 0.00 60 1012.5
20260509054540 57 0 0.0 1.0 0.00 0.00 0.00 59 1012.5
20260509053106 58 0 0.0 1.0 0.00 0.00 0.00 59 1012.6
20260509051529 58 0 0.0 0.0 0.00 0.00 0.00 56 1012.7
20260509050040 58 0 0.0 1.0 0.00 0.00 0.00 55 1012.6